[[{"header":{"parameterUnit":"m.s-1","parameterCategory":2,"la1":30.2991,"la2":30.254,"lo1":-89.0895,"lo2":-89.0444,"dy":0.0017,"dx":0.0017,"nx":28,"ny":28,"refTime":"2024-07-07T21:00:00:Z","depth":"0","parameterNumber":2,"parameterNumberName":"U-component_of_CURRENTS"},"data":[0,0,0,0,0,0,0,0,0,0,0,0,0,0,0,0,0,0,0,0,0,0,0,0,0,0,0,0,0,0,0,0,0,0,0,0,0,0,0,0,0,0,0,0,0,0,0,0,0,0,0,0,0,0,0,0,0,0,-0.4609,-0.4609,0,-0.4585,-0.4584,-0.4583,-0.4449,-0.4447,-0.4444,-0.4442,-0.4304,-0.4303,-0.4301,0,0,0,0,0,0,0,0,0,0,0,0,0,-0.4354,-0.436,-0.4608,-0.4609,-0.461,-0.4585,-0.4584,-0.4582,-0.4449,-0.4446,-0.4444,-0.4441,-0.4305,-0.4303,-0.4301,0,0,0,0,0,0,0,0,0,0,0,0,0,-0.4402,-0.4361,-0.4608,-0.4547,-0.4542,-0.4585,-0.4584,-0.4582,-0.445,-0.4446,-0.4443,-0.444,-0.4305,-0.4303,-0.4301,-0.4357,0,0,-0.4294,-0.4293,0,0,0,0,0,0,0,0,-0.44,-0.4411,-0.4556,-0.4552,-0.4546,-0.4525,-0.4444,-0.4505,-0.4451,-0.4475,-0.4442,-0.4438,-0.4376,-0.4368,-0.4359,-0.4351,-0.4345,-0.4294,-0.4293,-0.4292,-0.4291,0,0,0,0,0,0,0,-0.4397,-0.441,-0.4589,-0.4557,-0.4551,-0.4458,-0.4462,-0.4453,-0.4436,-0.4473,-0.4465,-0.4479,-0.4371,-0.4362,-0.4355,-0.4343,-0.4294,-0.4292,-0.4291,-0.429,-0.4376,-0.438,0,0,0,0,0,0,-0.4434,-0.4409,-0.459,-0.459,-0.4474,-0.4467,-0.4471,-0.4527,-0.4438,-0.4425,-0.4482,-0.4473,-0.4367,-0.4358,-0.435,-0.4382,-0.4292,-0.429,-0.4288,-0.4373,-0.4377,-0.4381,0,0,0,0,0,0,-0.443,-0.4453,-0.4591,-0.4502,-0.4514,-0.4478,-0.4541,-0.4529,-0.4501,-0.4449,-0.443,-0.4465,-0.4364,-0.4353,-0.4336,-0.4376,-0.4289,-0.4287,-0.4369,-0.4374,-0.4379,-0.4465,0,0,0,0,0,0,-0.4423,-0.4452,-0.4486,-0.4507,-0.4522,-0.461,-0.4545,-0.4531,-0.4521,-0.4508,-0.4429,-0.4413,-0.4361,-0.434,-0.4334,-0.4371,-0.4285,-0.4364,-0.4371,-0.4378,-0.4457,-0.4472,-0.4485,0,0,0,0,0,-0.4415,-0.4463,-0.449,-0.451,-0.4579,-0.4613,-0.461,-0.4562,-0.4524,-0.452,-0.4471,-0.4415,-0.4379,-0.434,-0.4332,-0.437,-0.4361,-0.4369,-0.4377,-0.4451,-0.4469,-0.4485,0,0,0,0,0,0,-0.4343,-0.4457,-0.4484,-0.456,-0.4592,-0.4593,-0.4591,-0.4572,-0.4534,-0.4515,-0.4445,-0.4428,-0.4437,-0.4407,-0.4366,-0.4425,-0.4369,-0.4376,-0.4428,-0.4445,-0.4459,-0.4459,-0.4283,0,0,0,0,0,-0.4366,-0.4429,-0.4517,-0.4561,-0.4603,-0.4605,-0.4608,-0.4592,-0.4575,-0.4552,-0.4508,-0.4479,-0.4476,-0.4456,-0.4448,-0.4469,-0.44,-0.45,-0.4514,-0.4526,-0.4527,-0.4451,-0.4455,-0.4408,-0.4408,-0.4408,0,0,-0.4321,-0.4412,-0.4427,-0.455,-0.4575,-0.465,-0.4594,-0.4616,-0.4647,-0.455,-0.4555,-0.4524,-0.4497,-0.4518,-0.4521,-0.4485,-0.4509,-0.4536,-0.4545,-0.4541,-0.4459,-0.4463,-0.4466,-0.4414,-0.4413,-0.4412,0,0,-0.43,-0.4392,-0.4453,-0.4532,-0.4623,-0.4646,-0.4664,-0.4697,-0.468,-0.4703,-0.4651,-0.4642,-0.4628,-0.4615,-0.4609,-0.4706,-0.4591,-0.4713,-0.4766,-0.4693,-0.4694,-0.4694,-0.4616,-0.4609,-0.4711,-0.4711,-0.4711,0,-0.4267,-0.4366,-0.4456,-0.4579,-0.4634,-0.4662,-0.4734,-0.4757,-0.4759,-0.4748,-0.4716,-0.4694,-0.4682,-0.4692,-0.474,-0.4734,-0.4657,-0.4692,-0.4703,-0.4702,-0.47,-0.4621,-0.4611,-0.4716,-0.4716,-0.4715,-0.4715,0,-0.4292,-0.4406,-0.4452,-0.4631,-0.4711,-0.4758,-0.4862,-0.4884,-0.4873,-0.4872,-0.4864,-0.4834,-0.4802,-0.4828,-0.4816,-0.4822,-0.476,-0.4727,-0.4642,-0.4709,-0.4623,-0.4611,-0.4724,-0.4722,-0.472,-0.4719,0,0,-0.4174,-0.4414,-0.4448,-0.4532,-0.4739,-0.4791,-0.49,-0.496,-0.4973,-0.4975,-0.4949,-0.499,-0.4932,-0.4926,-0.4896,-0.4861,-0.4818,-0.4799,-0.4793,-0.4691,-0.4626,-0.4288,-0.4242,-0.4755,-0.4754,-0.4753,-0.4569,0,-0.4164,-0.4327,-0.4487,-0.4633,-0.4714,-0.4855,-0.4951,-0.5027,-0.5037,-0.5027,-0.4997,-0.4972,-0.4982,-0.4941,-0.4918,-0.485,-0.479,-0.487,-0.4605,-0.4598,-0.4261,-0.4218,-0.4055,-0.3848,-0.4557,-0.4555,-0.4553,0,-0.4173,-0.4268,-0.4393,-0.4616,-0.4675,-0.4777,-0.4897,-0.4995,-0.5048,-0.5047,-0.5021,-0.4977,-0.4963,-0.493,-0.4822,-0.4858,-0.4756,-0.469,-0.4679,-0.4319,-0.4235,-0.39,-0.3799,-0.3805,-0.4534,-0.4535,-0.4537,0,-0.3999,-0.4236,-0.4297,-0.4383,-0.463,-0.47,-0.4818,-0.4951,-0.5003,-0.5026,-0.5005,-0.4975,-0.4915,-0.4822,-0.4676,-0.4752,-0.4478,-0.4563,-0.4154,-0.4131,-0.3916,-0.3871,-0.3754,-0.4435,-0.4436,-0.4436,-0.4437,0,-0.3955,-0.4025,-0.4203,-0.4255,-0.4341,-0.4577,-0.4654,-0.4789,-0.4885,-0.4897,-0.4972,-0.4891,-0.4877,-0.4709,-0.4623,-0.4284,-0.4415,-0.4127,-0.4037,-0.3941,-0.3903,-0.3834,-0.391,-0.4429,-0.4431,-0.4432,-0.4433,0,-0.3831,-0.3934,-0.4038,-0.423,-0.428,-0.4363,-0.458,-0.4607,-0.4756,-0.4758,-0.4753,-0.4799,-0.4588,-0.4462,-0.4269,-0.415,-0.3802,-0.3735,-0.3601,-0.3494,-0.3163,-0.325,-0.298,-0.2904,-0.334,-0.333,-0.3322,0,-0.3774,-0.38,-0.3984,-0.4016,-0.4112,-0.422,-0.4278,-0.4496,-0.4524,-0.4643,-0.4595,-0.4451,-0.4221,-0.3805,-0.3564,-0.3244,-0.3346,-0.2934,-0.306,-0.3057,-0.3096,-0.3196,-0.3167,-0.2855,-0.2843,-0.2834,-0.2826,0,-0.3655,-0.3732,-0.3797,-0.3838,-0.3899,-0.3979,-0.4071,-0.4062,-0.4265,-0.4219,-0.4067,-0.3894,-0.3575,-0.3145,-0.2779,-0.2623,-0.2874,-0.2724,-0.2784,-0.2714,-0.2761,-0.267,-0.3092,-0.2743,-0.2751,-0.2757,-0.2762,-0.2765,-0.3521,-0.3535,-0.3575,-0.3608,-0.3668,-0.3644,-0.3582,-0.3612,-0.353,-0.3353,-0.3426,-0.2993,-0.2847,-0.2298,-0.2147,-0.1944,-0.2156,-0.1962,-0.2075,-0.2184,-0.2064,-0.2241,-0.1731,-0.1733,-0.1736,-0.1737,-0.1739,0,-0.3258,-0.3266,-0.3313,-0.3299,-0.3216,-0.336,-0.3345,-0.3172,-0.2879,-0.2672,-0.2382,-0.1941,-0.1679,-0.1634,-0.1512,-0.1395,-0.1501,-0.1403,-0.165,-0.1659,-0.1852,-0.1783,-0.1181,-0.1181,-0.1181,-0.1181,-0.1181,-0.1181,-0.3084,-0.2987,-0.3005,-0.2765,-0.2761,-0.2553,-0.2456,-0.2256,-0.2037,-0.1446,-0.1051,-0.0866,-0.1085,-0.1315,-0.1313,-0.1252,-0.1358,-0.1212,-0.1331,-0.1642,-0.1712,-0.1778,-0.1731,-0.1128,-0.1128,-0.1109,-0.1109,-0.1109]},{"header":{"parameterUnit":"m.s-1","parameterCategory":2,"la1":30.2991,"la2":30.254,"lo1":-89.0895,"lo2":-89.0444,"dy":0.0017,"dx":0.0017,"nx":28,"ny":28,"refTime":"2024-07-07T21:00:00:Z","depth":"0","parameterNumber":3,"parameterNumberName":"V-component_of_CURRENTS"},"data":[0,0,0,0,0,0,0,0,0,0,0,0,0,0,0,0,0,0,0,0,0,0,0,0,0,0,0,0,0,0,0,0,0,0,0,0,0,0,0,0,0,0,0,0,0,0,0,0,0,0,0,0,0,0,0,0,0,0,-0.0857,-0.0856,0,-0.0773,-0.0773,-0.0772,-0.0661,-0.0659,-0.0657,-0.0655,-0.0448,-0.0445,-0.0441,0,0,0,0,0,0,0,0,0,0,0,0,0,-0.0856,-0.0857,-0.0857,-0.0856,-0.0855,-0.0774,-0.0773,-0.0772,-0.0661,-0.0659,-0.0657,-0.0654,-0.045,-0.0445,-0.0441,0,0,0,0,0,0,0,0,0,0,0,0,0,-0.0824,-0.0857,-0.0858,-0.0789,-0.0782,-0.0774,-0.0772,-0.0771,-0.0662,-0.0659,-0.0656,-0.0653,-0.0451,-0.0446,-0.044,-0.0466,0,0,-0.0424,-0.0421,0,0,0,0,0,0,0,0,-0.0826,-0.0825,-0.08,-0.0794,-0.0786,-0.0723,-0.0696,-0.0662,-0.0663,-0.0709,-0.0655,-0.0652,-0.053,-0.0518,-0.0513,-0.0456,-0.0447,-0.0423,-0.042,-0.0417,-0.0416,0,0,0,0,0,0,0,-0.0829,-0.0827,-0.0826,-0.0799,-0.079,-0.0739,-0.0732,-0.0689,-0.0636,-0.0705,-0.0696,-0.0685,-0.0525,-0.0519,-0.0507,-0.0444,-0.0423,-0.0418,-0.0415,-0.0413,-0.0297,-0.0297,0,0,0,0,0,0,-0.0843,-0.083,-0.0828,-0.0823,-0.0797,-0.0742,-0.0734,-0.0748,-0.0639,-0.062,-0.0688,-0.068,-0.0529,-0.0513,-0.0499,-0.0453,-0.0417,-0.0412,-0.0409,-0.0297,-0.0297,-0.0297,0,0,0,0,0,0,-0.0844,-0.0845,-0.0832,-0.0821,-0.0816,-0.0746,-0.0761,-0.0747,-0.0727,-0.0627,-0.0606,-0.0679,-0.0526,-0.0507,-0.0443,-0.0446,-0.041,-0.0405,-0.0297,-0.0297,-0.0297,-0.0405,0,0,0,0,0,0,-0.0845,-0.0847,-0.0856,-0.0824,-0.0817,-0.0817,-0.0763,-0.0748,-0.0725,-0.0714,-0.0613,-0.0592,-0.0523,-0.0452,-0.0438,-0.0438,-0.04,-0.0296,-0.0297,-0.0297,-0.0402,-0.0409,-0.0416,0,0,0,0,0,-0.0845,-0.0866,-0.0858,-0.0857,-0.0836,-0.0818,-0.081,-0.0749,-0.0727,-0.0721,-0.065,-0.0594,-0.0444,-0.0449,-0.0431,-0.043,-0.0296,-0.0297,-0.0297,-0.0398,-0.0408,-0.0416,0,0,0,0,0,0,-0.0862,-0.0856,-0.0846,-0.0862,-0.0839,-0.0797,-0.079,-0.0762,-0.0709,-0.0699,-0.0603,-0.0577,-0.052,-0.0467,-0.0474,-0.0397,-0.0359,-0.0357,-0.0442,-0.045,-0.0457,-0.0477,-0.0396,0,0,0,0,0,-0.0878,-0.0895,-0.0874,-0.0885,-0.0884,-0.0846,-0.0832,-0.0802,-0.0754,-0.0728,-0.0655,-0.058,-0.0517,-0.0476,-0.0413,-0.0382,-0.0317,-0.0367,-0.0375,-0.0382,-0.0386,-0.0353,-0.0358,-0.0299,-0.0299,-0.0299,0,0,-0.0883,-0.0885,-0.089,-0.089,-0.0875,-0.0876,-0.083,-0.0823,-0.0807,-0.0716,-0.0667,-0.0605,-0.0515,-0.0467,-0.0437,-0.0418,-0.0347,-0.0382,-0.0389,-0.0389,-0.0354,-0.036,-0.0365,-0.0299,-0.0299,-0.0299,0,0,-0.0905,-0.0916,-0.0935,-0.0935,-0.0926,-0.0901,-0.0904,-0.0871,-0.0837,-0.0799,-0.0725,-0.0671,-0.0573,-0.0513,-0.0469,-0.0484,-0.039,-0.0459,-0.0509,-0.0478,-0.0483,-0.0487,-0.0342,-0.0333,-0.0461,-0.0461,-0.0461,0,-0.091,-0.0943,-0.0933,-0.0958,-0.0963,-0.0919,-0.0941,-0.0906,-0.0846,-0.0831,-0.0788,-0.067,-0.0595,-0.0542,-0.0536,-0.0502,-0.0434,-0.0487,-0.049,-0.0493,-0.0495,-0.0347,-0.0335,-0.0466,-0.0465,-0.0465,-0.0464,0,-0.0947,-0.0976,-0.0993,-0.1012,-0.1013,-0.1028,-0.0994,-0.0975,-0.0934,-0.0896,-0.084,-0.0747,-0.0679,-0.0644,-0.0588,-0.0567,-0.0491,-0.0509,-0.0476,-0.0508,-0.0347,-0.0333,-0.0474,-0.0472,-0.047,-0.0469,0,0,-0.0957,-0.1008,-0.1015,-0.105,-0.1054,-0.1065,-0.1049,-0.1028,-0.1024,-0.0951,-0.0934,-0.083,-0.0794,-0.0743,-0.0674,-0.0635,-0.0564,-0.0584,-0.0579,-0.0451,-0.0411,-0.0263,-0.0231,-0.0599,-0.0599,-0.0599,-0.0267,0,-0.0988,-0.1059,-0.1066,-0.1121,-0.1162,-0.1141,-0.1138,-0.1115,-0.1065,-0.103,-0.0944,-0.0894,-0.0826,-0.08,-0.0755,-0.0625,-0.0543,-0.0646,-0.0388,-0.0378,-0.0256,-0.0218,-0.0175,0.0128,-0.0253,-0.025,-0.0248,0,-0.103,-0.1075,-0.1148,-0.1214,-0.123,-0.1243,-0.1256,-0.1246,-0.1186,-0.1149,-0.1091,-0.1016,-0.092,-0.088,-0.0663,-0.0735,-0.0578,-0.0466,-0.0452,-0.0275,-0.0207,0.0087,0.017,0.0304,-0.0225,-0.0227,-0.0229,0,-0.1075,-0.1139,-0.1205,-0.123,-0.128,-0.1303,-0.1311,-0.1285,-0.1284,-0.122,-0.1193,-0.1089,-0.0998,-0.0859,-0.0592,-0.0644,-0.0323,-0.0371,-0.0064,-0.0046,0.0064,0.0089,0.0288,-0.0219,-0.0219,-0.022,-0.0221,0,-0.1138,-0.1191,-0.1233,-0.1282,-0.1358,-0.1367,-0.1416,-0.1406,-0.1376,-0.1341,-0.126,-0.1156,-0.0999,-0.0785,-0.0594,-0.0235,-0.0311,-0.0038,0.0032,0.0039,0.0057,0.0237,0.0274,-0.0208,-0.021,-0.0213,-0.0215,0,-0.1211,-0.123,-0.1321,-0.138,-0.1396,-0.1458,-0.1496,-0.1515,-0.1468,-0.1408,-0.1387,-0.1193,-0.0884,-0.0653,-0.0345,-0.0183,0.0228,0.0248,0.0315,0.0385,0.0731,0.076,0.1077,0.1199,0.0606,0.0611,0.0616,0,-0.1255,-0.1311,-0.1406,-0.1456,-0.1488,-0.1551,-0.1587,-0.1574,-0.1552,-0.1372,-0.132,-0.103,-0.073,-0.0199,0.0099,0.0491,0.0546,0.0743,0.0619,0.0796,0.0879,0.0873,0.0948,0.0772,0.0777,0.0781,0.0785,0,-0.1348,-0.1385,-0.1464,-0.1554,-0.1608,-0.1664,-0.1674,-0.1652,-0.156,-0.1404,-0.108,-0.0822,-0.0321,0.0154,0.0597,0.0795,0.0841,0.0849,0.0971,0.0993,0.1057,0.1192,0.0586,0.0825,0.0821,0.0818,0.0816,0.0814,-0.1401,-0.1481,-0.1561,-0.1639,-0.1701,-0.1698,-0.1662,-0.1544,-0.1381,-0.0938,-0.0761,-0.0115,0.0168,0.0818,0.1032,0.1356,0.1268,0.1405,0.1433,0.1419,0.1493,0.1042,0.137,0.1369,0.1369,0.1368,0.1368,0,-0.1431,-0.1512,-0.1618,-0.1688,-0.1727,-0.1743,-0.1658,-0.1479,-0.1121,-0.0546,-0.0043,0.0728,0.1123,0.1392,0.1691,0.1885,0.1875,0.1948,0.1894,0.1947,0.151,0.1467,0.1901,0.1901,0.1901,0.1901,0.1901,0.1901,-0.1445,-0.1545,-0.1596,-0.165,-0.1686,-0.1628,-0.1524,-0.1129,-0.0666,0.032,0.1092,0.1625,0.1781,0.1992,0.2237,0.2272,0.2409,0.2409,0.2507,0.2121,0.2069,0.2018,0.1986,0.2522,0.2523,0.2904,0.2907,0.291]}],[{"header":{"parameterUnit":"m.s-1","parameterCategory":2,"la1":30.2991,"la2":30.254,"lo1":-89.0895,"lo2":-89.0444,"dy":0.0017,"dx":0.0017,"nx":28,"ny":28,"refTime":"2024-07-07T21:00:00:Z","depth":"2","parameterNumber":2,"parameterNumberName":"U-component_of_CURRENTS"},"data":[0,0,0,0,0,0,0,0,0,0,0,0,0,0,0,0,0,0,0,0,0,0,0,0,0,0,0,0,0,0,0,0,0,0,0,0,0,0,0,0,0,0,0,0,0,0,0,0,0,0,0,0,0,0,0,0,0,0,-0.2313,-0.2315,0,-0.2421,-0.2421,-0.2421,-0.2424,-0.2424,-0.2424,-0.2424,-0.2514,-0.2516,-0.2518,0,0,0,0,0,0,0,0,0,0,0,0,0,-0.2304,-0.2302,-0.2313,-0.2316,-0.2318,-0.2421,-0.2421,-0.2421,-0.2424,-0.2424,-0.2424,-0.2424,-0.2513,-0.2516,-0.2519,0,0,0,0,0,0,0,0,0,0,0,0,0,-0.2335,-0.2301,-0.2312,-0.2343,-0.2348,-0.2421,-0.2421,-0.2421,-0.2424,-0.2424,-0.2424,-0.2424,-0.2512,-0.2515,-0.2519,-0.254,0,0,-0.253,-0.2531,0,0,0,0,0,0,0,0,-0.2333,-0.2333,-0.2336,-0.2341,-0.2347,-0.2422,-0.2452,-0.2465,-0.2424,-0.238,-0.2424,-0.2424,-0.2491,-0.2496,-0.2496,-0.2544,-0.2548,-0.253,-0.2532,-0.2534,-0.2535,0,0,0,0,0,0,0,-0.2331,-0.233,-0.2341,-0.2339,-0.2346,-0.242,-0.242,-0.2454,-0.2422,-0.2383,-0.2388,-0.2423,-0.2492,-0.2492,-0.2498,-0.2549,-0.253,-0.2533,-0.2535,-0.2537,-0.2581,-0.2581,0,0,0,0,0,0,-0.2336,-0.2326,-0.2338,-0.2346,-0.2357,-0.242,-0.2421,-0.2386,-0.2422,-0.2432,-0.2423,-0.2423,-0.2486,-0.2494,-0.2501,-0.2477,-0.2534,-0.2537,-0.2539,-0.2582,-0.2581,-0.258,0,0,0,0,0,0,-0.2334,-0.2333,-0.2334,-0.2356,-0.2362,-0.242,-0.2382,-0.2388,-0.2402,-0.2455,-0.2462,-0.2433,-0.2486,-0.2496,-0.253,-0.2483,-0.2539,-0.2542,-0.2583,-0.2582,-0.2581,-0.2463,0,0,0,0,0,0,-0.2332,-0.2329,-0.2318,-0.2353,-0.2362,-0.2357,-0.2384,-0.2391,-0.2431,-0.2431,-0.2466,-0.2474,-0.2487,-0.2524,-0.2533,-0.2489,-0.2545,-0.2585,-0.2583,-0.2581,-0.2468,-0.2458,-0.2449,0,0,0,0,0,-0.233,-0.2314,-0.2314,-0.2319,-0.2336,-0.2358,-0.2366,-0.2402,-0.2431,-0.2416,-0.2454,-0.2473,-0.2518,-0.2527,-0.2538,-0.2493,-0.2586,-0.2583,-0.2581,-0.2472,-0.246,-0.2449,0,0,0,0,0,0,-0.2302,-0.2315,-0.2316,-0.2302,-0.2323,-0.2364,-0.2376,-0.241,-0.2429,-0.2444,-0.2479,-0.2487,-0.2492,-0.2523,-0.2532,-0.2502,-0.2549,-0.2549,-0.2462,-0.2451,-0.2441,-0.2477,-0.2547,0,0,0,0,0,-0.2293,-0.2297,-0.2302,-0.2308,-0.2294,-0.2336,-0.2361,-0.2388,-0.2419,-0.2428,-0.2447,-0.2475,-0.249,-0.2498,-0.2516,-0.2517,-0.2554,-0.2491,-0.2482,-0.2473,-0.251,-0.2544,-0.2541,-0.2573,-0.2573,-0.2573,0,0,-0.2298,-0.2314,-0.2317,-0.2309,-0.2317,-0.2298,-0.2344,-0.2376,-0.2382,-0.2438,-0.2433,-0.2452,-0.2487,-0.2469,-0.2473,-0.249,-0.2466,-0.2471,-0.2463,-0.2506,-0.2542,-0.2539,-0.2536,-0.2572,-0.2572,-0.2572,0,0,-0.2312,-0.229,-0.228,-0.2273,-0.2302,-0.2313,-0.232,-0.2336,-0.2344,-0.236,-0.239,-0.2395,-0.2414,-0.2414,-0.2425,-0.2386,-0.2421,-0.2377,-0.2349,-0.2379,-0.2377,-0.2376,-0.2343,-0.234,-0.2363,-0.2363,-0.2363,0,-0.2317,-0.2294,-0.2289,-0.2262,-0.2279,-0.2306,-0.2292,-0.2291,-0.2332,-0.2358,-0.2344,-0.2387,-0.2385,-0.24,-0.2356,-0.2362,-0.2379,-0.2381,-0.2367,-0.2367,-0.2368,-0.2335,-0.2334,-0.2357,-0.2357,-0.2358,-0.2359,0,-0.2292,-0.2282,-0.2271,-0.2236,-0.2238,-0.2246,-0.2235,-0.2244,-0.2266,-0.2285,-0.2307,-0.2304,-0.2341,-0.2302,-0.231,-0.231,-0.2314,-0.2352,-0.2393,-0.2358,-0.2324,-0.2325,-0.2348,-0.235,-0.2352,-0.2354,0,0,-0.2259,-0.226,-0.2251,-0.2255,-0.2235,-0.2241,-0.2232,-0.2248,-0.2283,-0.2266,-0.2309,-0.2267,-0.229,-0.2306,-0.2304,-0.2302,-0.2254,-0.2319,-0.2323,-0.2281,-0.2283,-0.2179,-0.217,-0.2298,-0.2299,-0.2301,-0.2227,0,-0.2239,-0.2226,-0.2229,-0.2223,-0.2197,-0.2223,-0.2225,-0.2254,-0.227,-0.2297,-0.2301,-0.2322,-0.2282,-0.2297,-0.2284,-0.2312,-0.2265,-0.2268,-0.2332,-0.2333,-0.2243,-0.2172,-0.2003,-0.1918,-0.2229,-0.2229,-0.2229,0,-0.2157,-0.2192,-0.2182,-0.2245,-0.2233,-0.2238,-0.2288,-0.2297,-0.2334,-0.2356,-0.2375,-0.2388,-0.2386,-0.2352,-0.2349,-0.2362,-0.2303,-0.229,-0.2288,-0.2254,-0.2234,-0.2022,-0.1909,-0.2231,-0.2231,-0.2231,-0.2231,0,-0.211,-0.214,-0.2164,-0.2163,-0.2216,-0.225,-0.2285,-0.232,-0.2358,-0.2395,-0.2422,-0.2448,-0.2448,-0.2441,-0.2354,-0.2379,-0.2332,-0.2372,-0.2203,-0.2193,-0.2098,-0.2078,-0.2332,-0.2332,-0.2332,-0.2333,-0.2333,0,-0.2052,-0.2069,-0.2154,-0.2156,-0.2214,-0.2247,-0.2311,-0.2341,-0.2413,-0.2442,-0.2448,-0.2446,-0.2475,-0.2434,-0.2381,-0.2273,-0.2343,-0.2193,-0.2178,-0.2041,-0.2018,-0.236,-0.2364,-0.233,-0.233,-0.2331,-0.2331,0,-0.1963,-0.2013,-0.2046,-0.2144,-0.2175,-0.2205,-0.2323,-0.2366,-0.2428,-0.2466,-0.248,-0.247,-0.2411,-0.2377,-0.2336,-0.2274,-0.221,-0.2123,-0.1918,-0.1881,-0.2046,-0.2045,-0.2002,-0.1998,-0.1995,-0.1992,-0.1989,0,-0.1925,-0.1925,-0.2016,-0.2043,-0.2089,-0.217,-0.2219,-0.2339,-0.2377,-0.2442,-0.2434,-0.2402,-0.2293,-0.2176,-0.2085,-0.1974,-0.2046,-0.1757,-0.1781,-0.2027,-0.2017,-0.2022,-0.2026,-0.1571,-0.1566,-0.1561,-0.1558,0,-0.1866,-0.1884,-0.1925,-0.1967,-0.2022,-0.2083,-0.2164,-0.221,-0.2322,-0.2336,-0.2274,-0.2202,-0.2076,-0.1867,-0.1736,-0.166,-0.1793,-0.166,-0.1982,-0.1687,-0.1617,-0.1609,-0.1628,-0.1516,-0.1521,-0.1524,-0.1526,-0.1527,-0.1825,-0.1829,-0.1859,-0.1884,-0.1937,-0.1941,-0.1928,-0.2011,-0.2023,-0.1998,-0.2048,-0.1883,-0.1822,-0.153,-0.141,-0.1343,-0.1481,-0.1434,-0.1451,-0.1471,-0.144,-0.137,-0.1212,-0.1214,-0.1216,-0.1218,-0.122,0,-0.176,-0.176,-0.1779,-0.1792,-0.1771,-0.1827,-0.184,-0.1781,-0.1706,-0.1734,-0.166,-0.1437,-0.1269,-0.1227,-0.1047,-0.1003,-0.1017,-0.0975,-0.1001,-0.104,-0.1076,-0.1028,-0.0689,-0.0687,-0.0686,-0.0685,0,0,-0.1733,-0.1703,-0.1693,-0.161,-0.1605,-0.1494,-0.1444,-0.135,-0.1313,-0.1198,-0.1144,-0.1223,-0.1196,-0.0967,-0.0883,-0.0757,-0.0901,-0.0716,-0.1136,-0.1205,-0.1239,-0.1323,-0.1291,0,0,0,0,0]},{"header":{"parameterUnit":"m.s-1","parameterCategory":2,"la1":30.2991,"la2":30.254,"lo1":-89.0895,"lo2":-89.0444,"dy":0.0017,"dx":0.0017,"nx":28,"ny":28,"refTime":"2024-07-07T21:00:00:Z","depth":"2","parameterNumber":3,"parameterNumberName":"V-component_of_CURRENTS"},"data":[0,0,0,0,0,0,0,0,0,0,0,0,0,0,0,0,0,0,0,0,0,0,0,0,0,0,0,0,0,0,0,0,0,0,0,0,0,0,0,0,0,0,0,0,0,0,0,0,0,0,0,0,0,0,0,0,0,0,-0.0468,-0.0467,0,-0.0321,-0.0319,-0.0317,-0.0229,-0.0229,-0.0229,-0.0228,0.0068,0.0075,0.0083,0,0,0,0,0,0,0,0,0,0,0,0,0,-0.0591,-0.059,-0.0468,-0.0466,-0.0465,-0.0321,-0.0319,-0.0317,-0.0229,-0.0229,-0.0229,-0.0228,0.0065,0.0074,0.0083,0,0,0,0,0,0,0,0,0,0,0,0,0,-0.05,-0.059,-0.0469,-0.0404,-0.0397,-0.0321,-0.0319,-0.0316,-0.023,-0.0229,-0.0228,-0.0228,0.0062,0.0073,0.0085,0.0143,0,0,0.0119,0.0124,0,0,0,0,0,0,0,0,-0.0506,-0.0496,-0.0415,-0.0408,-0.04,-0.0293,-0.0253,-0.0155,-0.023,-0.0293,-0.0228,-0.0228,-0.004,-0.002,0.0005,0.0157,0.017,0.012,0.0127,0.0132,0.0135,0,0,0,0,0,0,0,-0.0512,-0.0501,-0.041,-0.0413,-0.0404,-0.0354,-0.0341,-0.0235,-0.0168,-0.0287,-0.0281,-0.0265,-0.0034,-0.0007,0.0013,0.0174,0.012,0.013,0.0137,0.0141,0.0453,0.0455,0,0,0,0,0,0,-0.0536,-0.0508,-0.0414,-0.0405,-0.0453,-0.0352,-0.0338,-0.0328,-0.0172,-0.0149,-0.0265,-0.0261,-0.0026,-0.0,0.0024,0.0094,0.0132,0.0142,0.0149,0.0452,0.0454,0.0455,0,0,0,0,0,0,-0.0539,-0.0529,-0.042,-0.0453,-0.0435,-0.0352,-0.034,-0.0325,-0.0295,-0.0157,-0.0131,-0.0251,-0.0025,0.0008,0.011,0.0106,0.0147,0.0158,0.045,0.0452,0.0454,0.024,0,0,0,0,0,0,-0.0543,-0.0531,-0.0527,-0.0455,-0.0434,-0.0381,-0.034,-0.0323,-0.0286,-0.0279,-0.0135,-0.0108,-0.0022,0.0092,0.0121,0.0123,0.0167,0.0448,0.0451,0.0454,0.0245,0.0234,0.0225,0,0,0,0,0,-0.0548,-0.0545,-0.0528,-0.0516,-0.0434,-0.0381,-0.0366,-0.0304,-0.0286,-0.0275,-0.0185,-0.0112,0.0132,0.0101,0.0135,0.014,0.0447,0.045,0.0454,0.0249,0.0237,0.0226,0,0,0,0,0,0,-0.059,-0.0534,-0.0514,-0.0492,-0.0445,-0.0366,-0.0347,-0.0311,-0.0234,-0.0224,-0.0104,-0.007,0.0019,0.0123,0.0086,0.0247,0.0307,0.0317,0.0141,0.013,0.0121,0.011,0.0176,0,0,0,0,0,-0.0601,-0.0594,-0.0526,-0.0515,-0.0492,-0.0425,-0.0395,-0.0356,-0.0282,-0.0249,-0.0155,-0.0038,0.0061,0.0124,0.0231,0.0315,0.0388,0.0352,0.0342,0.0332,0.0353,0.0425,0.0421,0.0466,0.0466,0.0466,0,0,-0.0615,-0.0586,-0.058,-0.0525,-0.0484,-0.0452,-0.0405,-0.0368,-0.034,-0.0224,-0.0157,-0.0073,0.0076,0.0157,0.021,0.0242,0.0354,0.0337,0.0326,0.0353,0.0428,0.0423,0.0418,0.0469,0.0468,0.0468,0,0,-0.0641,-0.0615,-0.0611,-0.0576,-0.0521,-0.0479,-0.0474,-0.04,-0.0364,-0.0294,-0.021,-0.0138,0.003,0.011,0.018,0.0194,0.0292,0.0244,0.0189,0.0256,0.0251,0.0248,0.0292,0.0295,0.0245,0.0244,0.0244,0,-0.0658,-0.0644,-0.0602,-0.0583,-0.0558,-0.0497,-0.048,-0.0433,-0.034,-0.0308,-0.0287,-0.0087,0.0008,0.0109,0.0104,0.0166,0.022,0.0198,0.0234,0.0233,0.0234,0.0281,0.0286,0.0235,0.0236,0.0237,0.0238,0,-0.0671,-0.0657,-0.0653,-0.0616,-0.0584,-0.0565,-0.0498,-0.0465,-0.0424,-0.037,-0.028,-0.0172,-0.0049,-0.0019,0.0046,0.0107,0.0145,0.0192,0.0237,0.0214,0.0268,0.0277,0.022,0.0224,0.0227,0.0229,0,0,-0.0709,-0.0672,-0.0668,-0.0666,-0.0602,-0.0585,-0.0541,-0.0482,-0.0457,-0.0379,-0.0332,-0.0212,-0.0167,-0.0082,-0.0005,0.0046,0.0054,0.011,0.0118,0.0108,0.0188,0.0205,0.0218,0.0095,0.0097,0.0098,0.0205,0,-0.0729,-0.0725,-0.069,-0.0686,-0.0676,-0.0617,-0.0587,-0.0528,-0.0467,-0.0408,-0.0311,-0.0235,-0.0184,-0.0147,-0.009,0.0048,0.0079,0.0021,0.0257,0.0265,0.0244,0.0231,0.0219,0.0315,0.0215,0.0217,0.0218,0,-0.0738,-0.0742,-0.0745,-0.0732,-0.0722,-0.0713,-0.0665,-0.0627,-0.0525,-0.0474,-0.0388,-0.0302,-0.0198,-0.017,0.0021,-0.0017,0.0066,0.0148,0.0155,0.0264,0.0302,0.034,0.0337,0.0235,0.0234,0.0233,0.0232,0,-0.0791,-0.0776,-0.0794,-0.0785,-0.0754,-0.0754,-0.0737,-0.0654,-0.0625,-0.0519,-0.0476,-0.0338,-0.0256,-0.0126,0.0037,0.0036,0.0234,0.0261,0.0345,0.0347,0.0438,0.0445,0.0361,0.0361,0.0361,0.036,0.036,0,-0.0822,-0.0834,-0.0831,-0.0844,-0.0875,-0.0824,-0.083,-0.0781,-0.0703,-0.066,-0.0525,-0.0447,-0.0241,-0.01,0.0029,0.0224,0.0232,0.0344,0.0384,0.0362,0.0361,0.0392,0.0394,0.0364,0.0363,0.0363,0.0362,0,-0.0867,-0.0857,-0.0891,-0.0896,-0.0903,-0.093,-0.0919,-0.0913,-0.0818,-0.0752,-0.0722,-0.0515,-0.0306,-0.012,0.0113,0.0224,0.0394,0.044,0.0386,0.0418,0.046,0.0451,0.0573,0.0574,0.0576,0.0577,0.0578,0,-0.0887,-0.0909,-0.0954,-0.0992,-0.1005,-0.1033,-0.105,-0.0986,-0.0963,-0.0785,-0.0753,-0.0538,-0.0354,-0.0004,0.0221,0.0453,0.0431,0.0544,0.0544,0.0459,0.0486,0.0474,0.0463,0.0568,0.0568,0.0569,0.057,0,-0.094,-0.0961,-0.1,-0.1081,-0.1128,-0.1165,-0.1176,-0.1174,-0.1066,-0.0957,-0.0767,-0.0602,-0.024,0.0066,0.0345,0.0466,0.0515,0.0566,0.0522,0.0506,0.0462,0.0485,0.0473,0.0576,0.0575,0.0575,0.0574,0.0574,-0.0988,-0.104,-0.11,-0.1172,-0.1228,-0.1277,-0.1289,-0.1251,-0.118,-0.0983,-0.0814,-0.0511,-0.0211,0.0237,0.0441,0.061,0.0605,0.0646,0.0642,0.0637,0.0608,0.0568,0.0695,0.0695,0.0695,0.0695,0.0695,0,-0.1048,-0.1103,-0.1183,-0.127,-0.1335,-0.1339,-0.1349,-0.13,-0.1191,-0.0983,-0.0756,-0.0385,-0.0039,0.0244,0.0544,0.0723,0.0703,0.0727,0.0679,0.0672,0.0666,0.0636,0.0733,0.0733,0.0734,0.0734,0,0,-0.1085,-0.1174,-0.1215,-0.1333,-0.1385,-0.1419,-0.1412,-0.1301,-0.1141,-0.0892,-0.0661,-0.0373,-0.0007,0.0213,0.0446,0.0601,0.0577,0.06,0.0552,0.0461,0.0453,0.0605,0.0549,0,0,0,0,0]}],[{"header":{"parameterUnit":"m.s-1","parameterCategory":2,"la1":30.2991,"la2":30.254,"lo1":-89.0895,"lo2":-89.0444,"dy":0.0017,"dx":0.0017,"nx":28,"ny":28,"refTime":"2024-07-07T21:00:00:Z","depth":"4","parameterNumber":2,"parameterNumberName":"U-component_of_CURRENTS"},"data":[0,0,0,0,0,0,0,0,0,0,0,0,0,0,0,0,0,0,0,0,0,0,0,0,0,0,0,0,0,0,0,0,0,0,0,0,0,0,0,0,0,0,0,0,0,0,0,0,0,0,0,0,0,0,0,0,0,0,-0.1418,-0.1418,0,-0.1453,-0.1454,-0.1454,-0.1492,-0.1493,-0.1493,-0.1494,-0.1548,-0.1549,-0.155,0,0,0,0,0,0,0,0,0,0,0,0,0,-0.1412,-0.1412,-0.1418,-0.1418,-0.1419,-0.1453,-0.1454,-0.1454,-0.1492,-0.1493,-0.1493,-0.1494,-0.1548,-0.1549,-0.155,0,0,0,0,0,0,0,0,0,0,0,0,0,-0.1427,-0.1412,-0.1418,-0.1442,-0.1445,-0.1453,-0.1454,-0.1454,-0.1492,-0.1493,-0.1494,-0.1494,-0.1547,-0.1549,-0.155,-0.1542,0,0,-0.1554,-0.1555,0,0,0,0,0,0,0,0,-0.1426,-0.1428,-0.1438,-0.144,-0.1443,-0.1469,-0.1472,-0.1485,-0.1492,-0.1474,-0.1494,-0.1495,-0.1523,-0.1526,-0.1531,-0.1544,-0.1547,-0.1554,-0.1555,-0.1556,-0.1556,0,0,0,0,0,0,0,-0.1425,-0.1426,-0.1432,-0.1438,-0.1442,-0.1461,-0.1464,-0.1474,-0.1493,-0.1475,-0.1478,-0.1482,-0.1524,-0.1529,-0.1532,-0.1547,-0.1554,-0.1555,-0.1556,-0.1557,-0.1579,-0.1579,0,0,0,0,0,0,-0.1419,-0.1425,-0.1431,-0.1433,-0.1437,-0.146,-0.1464,-0.146,-0.1493,-0.1499,-0.1481,-0.1484,-0.1526,-0.153,-0.1534,-0.1592,-0.1556,-0.1557,-0.1558,-0.1579,-0.1579,-0.1579,0,0,0,0,0,0,-0.1418,-0.1419,-0.1429,-0.1431,-0.1433,-0.1459,-0.1455,-0.146,-0.1491,-0.1497,-0.1504,-0.151,-0.1527,-0.1532,-0.1549,-0.1592,-0.1558,-0.1559,-0.1579,-0.1579,-0.1579,-0.1666,0,0,0,0,0,0,-0.1418,-0.1418,-0.1429,-0.143,-0.1433,-0.145,-0.1455,-0.146,-0.149,-0.1495,-0.1523,-0.1528,-0.1528,-0.1547,-0.1551,-0.1593,-0.156,-0.158,-0.1579,-0.1579,-0.1663,-0.1668,-0.1673,0,0,0,0,0,-0.1417,-0.1423,-0.1429,-0.1431,-0.1442,-0.145,-0.1454,-0.1475,-0.1491,-0.1506,-0.1515,-0.1528,-0.1547,-0.1548,-0.1552,-0.1597,-0.158,-0.1579,-0.1579,-0.1661,-0.1667,-0.1673,0,0,0,0,0,0,-0.1429,-0.1427,-0.1434,-0.1441,-0.1453,-0.1457,-0.1477,-0.1489,-0.151,-0.1523,-0.1527,-0.1531,-0.1558,-0.1552,-0.1554,-0.1594,-0.1565,-0.1565,-0.1626,-0.1632,-0.1637,-0.1645,-0.1561,0,0,0,0,0,-0.1435,-0.144,-0.1442,-0.1452,-0.1459,-0.1473,-0.1486,-0.1501,-0.1511,-0.1523,-0.1538,-0.1548,-0.1554,-0.1574,-0.157,-0.1602,-0.1581,-0.1627,-0.1632,-0.1637,-0.1642,-0.1637,-0.1643,-0.1577,-0.1577,-0.1577,0,0,-0.1447,-0.1444,-0.1451,-0.1456,-0.1468,-0.1487,-0.1484,-0.1511,-0.1539,-0.1525,-0.157,-0.1564,-0.1559,-0.1587,-0.16,-0.1597,-0.1641,-0.1636,-0.1641,-0.1643,-0.1637,-0.1644,-0.165,-0.1576,-0.1577,-0.1577,0,0,-0.1457,-0.1467,-0.1472,-0.1485,-0.1505,-0.1515,-0.1528,-0.1546,-0.1569,-0.1595,-0.1591,-0.1607,-0.1622,-0.1632,-0.1637,-0.1663,-0.1656,-0.1667,-0.1724,-0.172,-0.1726,-0.1731,-0.1709,-0.1712,-0.1686,-0.1686,-0.1686,0,-0.1475,-0.1478,-0.1479,-0.1489,-0.1514,-0.1531,-0.1557,-0.1579,-0.1603,-0.1625,-0.1618,-0.1641,-0.1643,-0.1682,-0.1692,-0.1681,-0.1667,-0.1713,-0.173,-0.1734,-0.1738,-0.1714,-0.1716,-0.169,-0.1689,-0.1689,-0.1689,0,-0.1483,-0.1501,-0.1509,-0.153,-0.1556,-0.1583,-0.161,-0.1645,-0.1672,-0.1688,-0.1726,-0.1717,-0.1732,-0.1741,-0.1731,-0.177,-0.1746,-0.1729,-0.1725,-0.1751,-0.1723,-0.1723,-0.1696,-0.1694,-0.1693,-0.1692,0,0,-0.1477,-0.151,-0.1517,-0.1541,-0.1586,-0.1605,-0.1662,-0.1709,-0.1749,-0.1772,-0.1811,-0.183,-0.1826,-0.1827,-0.1824,-0.1834,-0.185,-0.1807,-0.1805,-0.1803,-0.1833,-0.1717,-0.1706,-0.1846,-0.1847,-0.1847,-0.1802,0,-0.1489,-0.1521,-0.154,-0.1594,-0.1617,-0.1665,-0.1716,-0.1766,-0.1798,-0.1835,-0.1849,-0.187,-0.1861,-0.1871,-0.1883,-0.1843,-0.1856,-0.1863,-0.1791,-0.1789,-0.1699,-0.1704,-0.1849,-0.1802,-0.1802,-0.1802,-0.1802,0,-0.1479,-0.1508,-0.1562,-0.1629,-0.1647,-0.1689,-0.1778,-0.1821,-0.1878,-0.1903,-0.1935,-0.193,-0.195,-0.1929,-0.1908,-0.1914,-0.1886,-0.1861,-0.1858,-0.1721,-0.1674,-0.1767,-0.1802,-0.1802,-0.1802,-0.1802,-0.1802,0,-0.1457,-0.1518,-0.1569,-0.1594,-0.1675,-0.1721,-0.177,-0.1842,-0.1883,-0.1938,-0.1957,-0.1979,-0.1973,-0.1955,-0.1905,-0.1909,-0.1864,-0.1853,-0.1729,-0.172,-0.1804,-0.1798,-0.1849,-0.1849,-0.1849,-0.1849,-0.1849,0,-0.1439,-0.148,-0.1565,-0.1591,-0.1659,-0.1719,-0.1793,-0.1842,-0.1909,-0.1939,-0.1981,-0.1983,-0.198,-0.1952,-0.1915,-0.1808,-0.1869,-0.1732,-0.1701,-0.1837,-0.1837,-0.1803,-0.1799,-0.1848,-0.1848,-0.1848,-0.1849,0,-0.1388,-0.145,-0.1509,-0.1612,-0.1643,-0.169,-0.1791,-0.1829,-0.1905,-0.1939,-0.1954,-0.198,-0.1929,-0.1915,-0.1862,-0.1793,-0.1722,-0.1681,-0.182,-0.1799,-0.158,-0.1581,-0.1521,-0.1517,-0.1513,-0.151,-0.1507,0,-0.136,-0.1386,-0.1505,-0.1542,-0.1588,-0.1668,-0.1711,-0.1809,-0.1837,-0.1913,-0.1903,-0.1899,-0.1897,-0.1717,-0.1725,-0.164,-0.1628,-0.1584,-0.1592,-0.1571,-0.1548,-0.1554,-0.1559,-0.1501,-0.15,-0.1499,-0.1498,0,-0.1304,-0.1361,-0.1412,-0.1481,-0.1538,-0.1591,-0.1653,-0.1669,-0.1764,-0.1855,-0.1795,-0.175,-0.169,-0.1622,-0.157,-0.1518,-0.1602,-0.1544,-0.1552,-0.1559,-0.1546,-0.1528,-0.1537,-0.1485,-0.1487,-0.1488,-0.1489,0,-0.1264,-0.1284,-0.1351,-0.1395,-0.1465,-0.1471,-0.1529,-0.1543,-0.1581,-0.1673,-0.1644,-0.1638,-0.1671,-0.1558,-0.1511,-0.1445,-0.1419,-0.137,-0.1386,-0.1401,-0.1381,-0.1348,-0.1194,0,0,0,0,0,-0.1212,-0.1214,-0.1252,-0.1292,-0.1352,-0.1375,-0.1465,-0.1523,-0.1624,-0.1541,-0.159,-0.153,-0.1441,-0.1436,-0.1335,-0.145,-0.1427,-0.1329,-0.1382,-0.1413,-0.1428,-0.1415,0,0,0,0,0,0,-0.1179,-0.1215,-0.1214,-0.1179,-0.1179,-0.1216,-0.1263,-0.1333,-0.1298,-0.1406,-0.1356,-0.1433,-0.136,-0.1461,-0.1298,-0.1298,-0.1299,-0.1341,-0.1337,-0.1404,-0.1418,-0.143,-0.1422,0,0,0,0,0]},{"header":{"parameterUnit":"m.s-1","parameterCategory":2,"la1":30.2991,"la2":30.254,"lo1":-89.0895,"lo2":-89.0444,"dy":0.0017,"dx":0.0017,"nx":28,"ny":28,"refTime":"2024-07-07T21:00:00:Z","depth":"4","parameterNumber":3,"parameterNumberName":"V-component_of_CURRENTS"},"data":[0,0,0,0,0,0,0,0,0,0,0,0,0,0,0,0,0,0,0,0,0,0,0,0,0,0,0,0,0,0,0,0,0,0,0,0,0,0,0,0,0,0,0,0,0,0,0,0,0,0,0,0,0,0,0,0,0,0,-0.0388,-0.0388,0,-0.0333,-0.0333,-0.0332,-0.0296,-0.0296,-0.0296,-0.0296,-0.0208,-0.0206,-0.0204,0,0,0,0,0,0,0,0,0,0,0,0,0,-0.0412,-0.0412,-0.0388,-0.0388,-0.0387,-0.0333,-0.0333,-0.0332,-0.0296,-0.0296,-0.0296,-0.0295,-0.0209,-0.0206,-0.0204,0,0,0,0,0,0,0,0,0,0,0,0,0,-0.0384,-0.0412,-0.0388,-0.0362,-0.036,-0.0334,-0.0333,-0.0332,-0.0296,-0.0296,-0.0296,-0.0295,-0.021,-0.0207,-0.0204,-0.0192,0,0,-0.0194,-0.0193,0,0,0,0,0,0,0,0,-0.0386,-0.0383,-0.0367,-0.0364,-0.0361,-0.0321,-0.0309,-0.0283,-0.0296,-0.0321,-0.0296,-0.0295,-0.0243,-0.0237,-0.0228,-0.0188,-0.0184,-0.0194,-0.0192,-0.019,-0.019,0,0,0,0,0,0,0,-0.0388,-0.0385,-0.0367,-0.0366,-0.0363,-0.0336,-0.0332,-0.0304,-0.0284,-0.0319,-0.0316,-0.0309,-0.0241,-0.0232,-0.0226,-0.0183,-0.0194,-0.0191,-0.0189,-0.0188,-0.0138,-0.0138,0,0,0,0,0,0,-0.0397,-0.0388,-0.0369,-0.0365,-0.0372,-0.0336,-0.0332,-0.0334,-0.0285,-0.0277,-0.031,-0.0308,-0.0237,-0.023,-0.0223,-0.0187,-0.019,-0.0188,-0.0186,-0.0137,-0.0138,-0.0138,0,0,0,0,0,0,-0.0398,-0.0397,-0.0371,-0.0374,-0.0369,-0.0337,-0.0339,-0.0334,-0.0326,-0.0279,-0.027,-0.0309,-0.0237,-0.0227,-0.0204,-0.0184,-0.0186,-0.0183,-0.0137,-0.0137,-0.0138,-0.0128,0,0,0,0,0,0,-0.0399,-0.0398,-0.0401,-0.0375,-0.0369,-0.0358,-0.034,-0.0333,-0.0322,-0.032,-0.0275,-0.0266,-0.0236,-0.0209,-0.0201,-0.018,-0.0181,-0.0136,-0.0137,-0.0138,-0.0128,-0.0128,-0.0129,0,0,0,0,0,-0.0401,-0.0407,-0.0402,-0.04,-0.0377,-0.0359,-0.0353,-0.0328,-0.0323,-0.0321,-0.0295,-0.0268,-0.021,-0.0207,-0.0197,-0.0175,-0.0135,-0.0137,-0.0138,-0.0127,-0.0128,-0.0129,0,0,0,0,0,0,-0.0419,-0.0403,-0.0397,-0.0399,-0.0382,-0.0353,-0.0348,-0.0335,-0.0313,-0.0313,-0.0271,-0.0261,-0.0238,-0.0217,-0.0215,-0.0169,-0.0169,-0.0169,-0.0165,-0.0165,-0.0166,-0.0163,-0.0178,0,0,0,0,0,-0.0427,-0.043,-0.0407,-0.0411,-0.0405,-0.038,-0.037,-0.0356,-0.0333,-0.0324,-0.0292,-0.0264,-0.0235,-0.021,-0.0191,-0.0158,-0.0132,-0.0142,-0.0143,-0.0143,-0.0138,-0.0077,-0.0071,-0.0143,-0.0143,-0.0142,0,0,-0.0437,-0.0427,-0.043,-0.0415,-0.0402,-0.0392,-0.0373,-0.0365,-0.035,-0.0317,-0.0293,-0.0271,-0.0234,-0.0201,-0.0187,-0.0176,-0.0115,-0.0145,-0.0145,-0.0139,-0.0078,-0.007,-0.0063,-0.0143,-0.0143,-0.0143,0,0,-0.0452,-0.045,-0.0454,-0.0442,-0.0425,-0.0407,-0.0408,-0.0383,-0.0365,-0.0344,-0.0316,-0.0279,-0.0246,-0.0197,-0.0172,-0.0167,-0.0132,-0.0172,-0.0149,-0.0091,-0.0083,-0.0076,-0.005,-0.004,-0.0156,-0.0156,-0.0156,0,-0.0464,-0.0466,-0.0452,-0.0448,-0.0439,-0.0417,-0.0415,-0.0392,-0.036,-0.0341,-0.0341,-0.0272,-0.0236,-0.0171,-0.0167,-0.0161,-0.0142,-0.0142,-0.0088,-0.008,-0.0073,-0.0047,-0.0037,-0.0156,-0.0156,-0.0156,-0.0156,0,-0.0478,-0.0477,-0.0479,-0.0468,-0.0456,-0.0454,-0.0422,-0.0406,-0.0389,-0.0358,-0.0311,-0.026,-0.0214,-0.0194,-0.0173,-0.0106,-0.0115,-0.0104,-0.0078,-0.0065,-0.004,-0.0029,-0.0155,-0.0156,-0.0156,-0.0156,0,0,-0.0507,-0.0493,-0.0494,-0.0496,-0.0469,-0.0467,-0.0437,-0.0402,-0.0385,-0.0339,-0.0301,-0.0232,-0.0206,-0.0177,-0.0137,-0.0071,-0.0004,-0.0066,-0.0063,-0.0027,0.0101,0.0079,0.0089,0.0017,0.002,0.0021,0.0094,0,-0.0522,-0.0528,-0.0509,-0.0515,-0.0515,-0.0484,-0.0462,-0.0426,-0.0389,-0.0348,-0.0269,-0.0232,-0.0198,-0.0177,-0.0102,-0.0037,0.0026,-0.0026,0.0072,0.0074,0.0066,0.0102,0.0028,0.0102,0.0105,0.0106,0.0108,0,-0.0537,-0.054,-0.0551,-0.0544,-0.0542,-0.0544,-0.0513,-0.0488,-0.0412,-0.0379,-0.0307,-0.026,-0.0158,-0.0141,0.0009,-0.0031,0.0034,0.0092,0.0096,0.0083,0.0073,0.0089,0.0127,0.0125,0.0124,0.0123,0.0122,0,-0.0573,-0.0568,-0.0585,-0.0584,-0.0568,-0.0572,-0.0563,-0.0505,-0.0486,-0.0402,-0.0375,-0.0257,-0.0204,-0.0093,0.0022,0.0016,0.0176,0.0182,0.0225,0.0223,0.0217,0.0209,0.0291,0.0291,0.0291,0.0291,0.029,0,-0.0592,-0.0606,-0.0613,-0.0627,-0.0656,-0.0623,-0.0632,-0.0599,-0.054,-0.0511,-0.0405,-0.0347,-0.0188,-0.0081,0.0021,0.0152,0.0177,0.0238,0.0253,0.0213,0.0204,0.0223,0.0214,0.0293,0.0293,0.0292,0.0292,0,-0.0622,-0.0623,-0.0657,-0.0668,-0.0679,-0.0705,-0.0706,-0.0703,-0.0634,-0.0588,-0.0565,-0.041,-0.0258,-0.011,0.0074,0.0142,0.027,0.0308,0.0237,0.0244,0.0275,0.0266,0.0368,0.0368,0.0369,0.0369,0.0369,0,-0.0633,-0.0654,-0.071,-0.075,-0.0766,-0.0795,-0.0814,-0.0765,-0.0748,-0.0621,-0.0599,-0.044,-0.0326,-0.0073,0.0074,0.0265,0.029,0.0334,0.0331,0.0285,0.029,0.028,0.027,0.0369,0.0369,0.0369,0.0369,0,-0.066,-0.0695,-0.0731,-0.0817,-0.0867,-0.0904,-0.0918,-0.0912,-0.083,-0.0765,-0.0599,-0.0442,-0.0266,-0.0065,0.0079,0.0216,0.0296,0.0336,0.0337,0.0334,0.0287,0.0289,0.028,0.0369,0.0369,0.0369,0.0369,0,-0.0692,-0.0737,-0.0803,-0.0873,-0.0945,-0.0992,-0.0992,-0.0937,-0.0897,-0.0734,-0.068,-0.0454,-0.0309,-0.0091,0.0043,0.0175,0.0209,0.0233,0.024,0.0241,0.0181,0.0101,0.0152,0,0,0,0,0,-0.0714,-0.0772,-0.0849,-0.0931,-0.1003,-0.1036,-0.1047,-0.1023,-0.0938,-0.0826,-0.0741,-0.056,-0.0294,-0.0166,-0.0035,0.0004,0.0188,0.0155,0.0207,0.0371,0.0371,0.0321,0,0,0,0,0,0,-0.0735,-0.0813,-0.0853,-0.0958,-0.1019,-0.1086,-0.1097,-0.1044,-0.0956,-0.084,-0.0687,-0.0551,-0.0295,-0.0362,-0.0035,0.0008,0.005,0.0299,0.0301,0.0371,0.0371,0.0371,0.0319,0,0,0,0,0]}]]